Flag for Germany Weather past 2 weeks in Eberswalde, Brandenburg, Germany

Now
34 °F

Light snow. Partly sunny.


Feels Like: 28 °F
Forecast: 29 / 35 °F
Wind: 7 mph from Southeast

Location: Berlin-Tegel

Current Time: Jan 30, 2015 at 9:43:16 AM

Latest Report: Jan 30, 2015 at 9:20 AM


Visibility: 4 mi

Pressure: 28.74 "Hg

Humidity: 93%

Dew point: 32 °F

Location of EberswaldeLocation

Historic Weather in Eberswalde — Graph

°F

Eberswalde temperature yesterday

Maximum temperature yesterday: 39 °F (at 12:20 PM)
Minimum temperature yesterday: 34 °F (at 7:50 AM)
Average temperature yesterday: 36 °F

Past Weeks' High & Low Weather Summary

 TemperatureHumidityPressure
High50 °F (Jan 15, 10:50 PM)100% (Jan 17, 1:20 AM)30.30 "Hg (Jan 17, 1:20 AM)
Low27 °F (Jan 19, 7:20 AM)58% (Jan 15, 10:50 PM)28.71 "Hg (Jan 30, 6:50 AM)
Average36 °F87%29.88 "Hg
* Reported Jan 15 8:20 AM — Jan 30 8:50 AM, Eberswalde, Weather by CustomWeather, © 2014

Note: Actual official high and low records may vary slightly from our data, if they occured in-between our weather recording intervals... More about our weather records

Advertising

Eberswalde weather history for previous 24 hours

 ConditionsComfort  
Time TempWeatherWind HumidityBarometerVisibility
8:50 AM
Jan 30
34 °FLight snow. Partly sunny.6 mph93%28.74 "Hg3 mi
8:20 AM34 °FLight snow. Partly sunny.7 mph93%28.71 "Hg3 mi
7:50 AM34 °FLight snow. Passing clouds.9 mph93%28.71 "Hg3 mi
7:20 AM34 °FLight snow. Low clouds.9 mph93%28.71 "Hg3 mi
6:50 AM34 °FLight snow. Low clouds.9 mph93%28.71 "Hg3 mi
6:20 AM34 °FLight snow. Low clouds.8 mph93%28.74 "Hg3 mi
5:50 AM34 °FLight snow. Low clouds.9 mph100%28.74 "Hg4 mi
5:20 AM34 °FLight snow. Low clouds.10 mph100%28.74 "Hg4 mi
4:20 AM34 °FLight snow. Passing clouds.8 mph100%28.74 "Hg4 mi
3:50 AM34 °FLight snow. Passing clouds.8 mph93%28.77 "Hg4 mi
3:20 AM34 °FLight snow. Passing clouds.8 mph100%28.77 "Hg5 mi
2:50 AM34 °FLight snow. Passing clouds.10 mph93%28.77 "HgN/A
2:20 AM34 °FLight snow. Partly cloudy.9 mph93%28.80 "HgN/A
1:50 AM34 °FLight snow. Partly cloudy.9 mph93%28.80 "HgN/A
1:20 AM34 °FLight snow. Partly cloudy.10 mph93%28.82 "HgN/A
12:50 AM32 °FLight snow. Passing clouds.9 mph100%28.82 "Hg4 mi
12:20 AM32 °FSnow. Passing clouds.8 mph100%28.85 "Hg2 mi
11:50 PM
Jan 29
34 °FLight snow. Passing clouds.8 mph93%28.88 "Hg3 mi
11:20 PM34 °FPartly cloudy.9 mph87%28.88 "HgN/A
10:50 PM34 °FClear.10 mph81%28.88 "Hg10 mi
10:20 PM34 °FClear.12 mph81%28.91 "Hg10 mi
9:50 PM34 °FClear.9 mph81%28.91 "Hg10 mi
9:20 PM34 °FClear.12 mph87%28.94 "Hg10 mi
8:50 PM34 °FClear.12 mph87%28.97 "Hg10 mi
8:20 PM36 °FClear.13 mph81%28.97 "Hg10 mi
7:50 PM36 °FClear.12 mph81%29.00 "Hg10 mi
7:20 PM36 °FClear.12 mph81%29.00 "Hg10 mi
6:50 PM36 °FClear.13 mph81%29.00 "Hg10 mi
6:20 PM37 °FPassing clouds.14 mph75%29.03 "HgN/A
5:50 PM37 °FPassing clouds.15 mph70%29.03 "HgN/A
5:20 PM37 °FPassing clouds.12 mph70%29.06 "HgN/A
4:50 PM37 °FPassing clouds.14 mph75%29.06 "HgN/A
4:20 PM39 °FScattered clouds.13 mph65%29.06 "HgN/A
3:50 PM39 °FScattered clouds.12 mph70%29.09 "HgN/A
3:20 PM37 °FScattered clouds.15 mph75%29.09 "HgN/A
2:50 PM39 °FBroken clouds.17 mph65%29.12 "HgN/A
2:20 PM39 °FScattered clouds.14 mph65%29.12 "HgN/A
1:50 PM39 °FScattered showers. Partly sunny.17 mph65%29.15 "HgN/A
1:20 PM39 °FScattered showers. Partly sunny.18 mph61%29.15 "HgN/A
12:50 PM39 °FPartly sunny.21 mph61%29.18 "HgN/A
12:20 PM39 °FPartly sunny.16 mph61%29.21 "HgN/A
11:50 AM37 °FBroken clouds.18 mph70%29.21 "HgN/A
11:20 AM37 °FPartly sunny.21 mph70%29.24 "HgN/A
10:50 AM37 °FScattered clouds.18 mph70%29.24 "HgN/A
10:20 AM37 °FPassing clouds.18 mph75%29.24 "HgN/A
9:50 AM36 °FSunny.17 mph75%29.24 "Hg10 mi
9:20 AM36 °FSunny.15 mph75%29.24 "Hg10 mi
Weather by CustomWeather, © 2014

See weather overviewHow to use our weather pages